Time,TemperatureF,DewpointF,PressureIn,WindDirection,WindDirectionDegrees,WindSpeedMPH,WindSpeedGustMPH,Humidity,HourlyPrecipIn,Conditions,Clouds,dailyrainin,SoftwareType,DateUTC
2013-04-07 00:01:00,43.8,43.0,29.85,ENE,59,0.0,2.0,97,0.00,,,0.29,Wunderground v.1.15,2013-04-07 07:01:00,
2013-04-07 00:11:00,43.6,42.8,29.85,ENE,59,0.0,1.0,97,0.00,,,0.29,Wunderground v.1.15,2013-04-07 07:11:00,
2013-04-07 00:16:00,43.6,42.8,29.83,ENE,58,0.0,1.0,97,0.00,,,0.29,Wunderground v.1.15,2013-04-07 07:16:00,
2013-04-07 00:26:00,43.6,42.8,29.83,ENE,58,0.0,1.0,97,0.00,,,0.29,Wunderground v.1.15,2013-04-07 07:26:00,
2013-04-07 00:31:00,43.5,42.7,29.81,NE,38,0.0,2.0,97,0.00,,,0.29,Wunderground v.1.15,2013-04-07 07:31:00,
2013-04-07 00:37:00,43.5,42.7,29.81,NE,34,0.0,2.0,97,0.00,,,0.29,Wunderground v.1.15,2013-04-07 07:37:00,
2013-04-07 00:46:00,43.3,42.5,29.79,NE,34,0.0,1.0,97,0.00,,,0.29,Wunderground v.1.15,2013-04-07 07:46:00,
2013-04-07 00:56:00,43.3,42.5,29.79,NE,34,0.0,1.0,97,0.00,,,0.29,Wunderground v.1.15,2013-04-07 07:56:00,
2013-04-07 01:06:00,43.2,42.4,29.77,NE,34,0.0,0.0,97,0.00,,,0.00,Wunderground v.1.15,2013-04-07 08:06:00,
2013-04-07 01:15:00,43.1,42.3,29.77,NE,34,0.0,0.0,97,0.00,,,0.00,Wunderground v.1.15,2013-04-07 08:15:00,
2013-04-07 01:25:00,43.1,42.3,29.75,NNE,32,0.0,1.0,97,0.00,,,0.00,Wunderground v.1.15,2013-04-07 08:25:00,
2013-04-07 01:35:00,42.9,42.1,29.73,NNE,32,0.0,1.0,97,0.00,,,0.00,Wunderground v.1.15,2013-04-07 08:35:00,
2013-04-07 01:40:00,42.9,42.1,29.73,NNE,32,0.0,0.0,97,0.00,,,0.00,Wunderground v.1.15,2013-04-07 08:40:00,
2013-04-07 01:50:00,42.9,42.1,29.72,NNE,32,0.0,0.0,97,0.00,,,0.00,Wunderground v.1.15,2013-04-07 08:50:00,
2013-04-07 02:00:00,42.8,42.0,29.72,NNE,32,0.0,0.0,97,0.00,,,0.01,Wunderground v.1.15,2013-04-07 09:00:00,
2013-04-07 02:10:00,42.8,42.0,29.71,NNE,32,0.0,0.0,97,0.00,,,0.01,Wunderground v.1.15,2013-04-07 09:10:00,
2013-04-07 02:15:00,42.8,42.0,29.71,NNE,32,0.0,0.0,97,0.00,,,0.01,Wunderground v.1.15,2013-04-07 09:15:00,
2013-04-07 02:20:00,42.8,42.0,29.70,NNE,32,0.0,0.0,97,0.00,,,0.01,Wunderground v.1.15,2013-04-07 09:20:00,
2013-04-07 02:30:00,42.8,42.0,29.70,NNE,32,0.0,1.0,97,0.00,,,0.02,Wunderground v.1.15,2013-04-07 09:30:00,
2013-04-07 02:35:00,42.6,41.8,29.68,NNE,32,0.0,1.0,97,0.06,,,0.03,Wunderground v.1.15,2013-04-07 09:35:00,
2013-04-07 02:46:00,42.6,41.8,29.68,NNE,31,0.0,2.0,97,0.06,,,0.03,Wunderground v.1.15,2013-04-07 09:46:00,
2013-04-07 02:55:00,42.5,41.7,29.67,NNE,31,0.0,2.0,97,0.06,,,0.04,Wunderground v.1.15,2013-04-07 09:55:00,
2013-04-07 03:10:00,42.5,41.7,29.66,NNE,31,0.0,0.0,97,0.08,,,0.06,Wunderground v.1.15,2013-04-07 10:10:00,
2013-04-07 03:20:00,42.5,41.7,29.65,NNE,31,0.0,0.0,97,0.14,,,0.08,Wunderground v.1.15,2013-04-07 10:20:00,
2013-04-07 03:30:00,42.5,41.7,29.65,NNE,31,0.0,0.0,97,0.12,,,0.10,Wunderground v.1.15,2013-04-07 10:30:00,
2013-04-07 03:40:00,42.3,41.5,29.64,NNE,31,0.0,0.0,97,0.07,,,0.11,Wunderground v.1.15,2013-04-07 10:40:00,
2013-04-07 03:55:00,42.2,41.4,29.63,NNE,31,0.0,1.0,97,0.12,,,0.14,Wunderground v.1.15,2013-04-07 10:55:00,
2013-04-07 04:10:00,41.9,41.1,29.61,WNW,294,0.0,0.0,97,0.12,,,0.17,Wunderground v.1.15,2013-04-07 11:10:00,
2013-04-07 04:15:00,41.8,41.0,29.61,WNW,294,0.0,0.0,97,0.09,,,0.18,Wunderground v.1.15,2013-04-07 11:15:00,
2013-04-07 04:25:00,41.6,40.8,29.60,SW,234,0.0,1.0,97,0.17,,,0.20,Wunderground v.1.15,2013-04-07 11:25:00,
2013-04-07 04:30:00,41.6,40.8,29.60,SW,234,0.0,0.0,97,0.13,,,0.21,Wunderground v.1.15,2013-04-07 11:30:00,
2013-04-07 04:35:00,41.6,40.8,29.59,SW,233,1.0,1.0,97,0.14,,,0.22,Wunderground v.1.15,2013-04-07 11:35:00,
2013-04-07 04:45:00,41.5,40.7,29.59,WSW,247,1.0,2.0,97,0.11,,,0.24,Wunderground v.1.15,2013-04-07 11:45:00,
2013-04-07 04:55:00,41.5,40.7,29.58,WSW,243,1.0,1.0,97,0.12,,,0.26,Wunderground v.1.15,2013-04-07 11:55:00,
2013-04-07 05:10:00,41.5,40.7,29.58,WSW,246,2.0,2.0,97,0.09,,,0.28,Wunderground v.1.15,2013-04-07 12:10:00,
2013-04-07 05:15:00,41.5,40.7,29.58,WSW,240,1.0,2.0,97,0.11,,,0.30,Wunderground v.1.15,2013-04-07 12:15:00,
2013-04-07 05:25:00,41.5,40.7,29.57,West,268,1.0,4.0,97,0.15,,,0.31,Wunderground v.1.15,2013-04-07 12:25:00,
2013-04-07 05:35:00,41.5,40.7,29.56,WSW,256,0.0,1.0,97,0.16,,,0.34,Wunderground v.1.15,2013-04-07 12:35:00,
2013-04-07 05:40:00,41.5,40.7,29.56,WSW,256,0.0,0.0,97,0.15,,,0.35,Wunderground v.1.15,2013-04-07 12:40:00,
2013-04-07 05:45:00,41.5,41.0,29.56,WSW,256,0.0,0.0,98,0.17,,,0.37,Wunderground v.1.15,2013-04-07 12:45:00,
2013-04-07 05:50:00,41.5,40.7,29.56,WSW,248,1.0,1.0,97,0.19,,,0.38,Wunderground v.1.15,2013-04-07 12:50:00,
2013-04-07 06:00:00,41.5,41.0,29.56,SW,234,1.0,1.0,98,0.23,,,0.40,Wunderground v.1.15,2013-04-07 13:00:00,
2013-04-07 06:10:00,41.5,41.0,29.56,WSW,241,0.0,0.0,98,0.21,,,0.44,Wunderground v.1.15,2013-04-07 13:10:00,
2013-04-07 06:20:00,41.5,41.0,29.56,WSW,237,1.0,1.0,98,0.22,,,0.48,Wunderground v.1.15,2013-04-07 13:20:00,
2013-04-07 06:30:00,41.3,40.8,29.56,WSW,248,1.0,1.0,98,0.22,,,0.51,Wunderground v.1.15,2013-04-07 13:30:00,
2013-04-07 06:35:00,41.3,40.8,29.57,WSW,253,1.0,1.0,98,0.20,,,0.53,Wunderground v.1.15,2013-04-07 13:35:00,
2013-04-07 06:40:00,41.3,40.8,29.57,WSW,253,0.0,0.0,98,0.19,,,0.54,Wunderground v.1.15,2013-04-07 13:40:00,
2013-04-07 06:50:00,41.2,40.7,29.57,West,265,0.0,1.0,98,0.15,,,0.57,Wunderground v.1.15,2013-04-07 13:50:00,
2013-04-07 06:55:00,40.6,40.1,29.57,West,264,1.0,1.0,98,0.16,,,0.58,Wunderground v.1.15,2013-04-07 13:55:00,
2013-04-07 07:00:00,40.3,39.5,29.57,South,189,1.0,1.0,97,0.16,,,0.59,Wunderground v.1.15,2013-04-07 14:00:00,
2013-04-07 07:10:00,39.9,39.1,29.58,WSW,246,1.0,4.0,97,0.09,,,0.61,Wunderground v.1.15,2013-04-07 14:10:00,
2013-04-07 07:20:00,39.6,38.8,29.59,WSW,246,0.0,0.0,97,0.06,,,0.62,Wunderground v.1.15,2013-04-07 14:20:00,
2013-04-07 07:30:00,39.5,38.7,29.59,West,274,0.0,0.0,97,0.04,,,0.62,Wunderground v.1.15,2013-04-07 14:30:00,
2013-04-07 07:36:00,39.5,38.7,29.61,West,274,0.0,0.0,97,0.00,,,0.62,Wunderground v.1.15,2013-04-07 14:36:00,
2013-04-07 07:45:00,39.5,38.7,29.61,West,274,0.0,0.0,97,0.00,,,0.63,Wunderground v.1.15,2013-04-07 14:45:00,
2013-04-07 07:50:00,39.6,38.8,29.62,West,274,0.0,0.0,97,0.00,,,0.63,Wunderground v.1.15,2013-04-07 14:50:00,
2013-04-07 07:55:00,39.8,39.0,29.62,West,274,0.0,0.0,97,0.00,,,0.63,Wunderground v.1.15,2013-04-07 14:55:00,
2013-04-07 08:10:00,40.2,39.4,29.63,West,274,0.0,0.0,97,0.00,,,0.63,Wunderground v.1.15,2013-04-07 15:10:00,
2013-04-07 08:15:00,40.3,39.8,29.63,West,274,0.0,0.0,98,0.00,,,0.63,Wunderground v.1.15,2013-04-07 15:15:00,
2013-04-07 08:20:00,40.5,40.0,29.64,West,274,0.0,0.0,98,0.00,,,0.63,Wunderground v.1.15,2013-04-07 15:20:00,
2013-04-07 08:25:00,40.6,40.1,29.64,West,260,0.0,1.0,98,0.00,,,0.64,Wunderground v.1.15,2013-04-07 15:25:00,
2013-04-07 08:30:00,40.8,40.3,29.64,SE,143,0.0,1.0,98,0.00,,,0.64,Wunderground v.1.15,2013-04-07 15:30:00,
2013-04-07 08:40:00,41.1,40.6,29.65,South,178,1.0,1.0,98,0.00,,,0.64,Wunderground v.1.15,2013-04-07 15:40:00,
2013-04-07 08:50:00,41.3,40.8,29.67,South,181,1.0,1.0,98,0.00,,,0.64,Wunderground v.1.15,2013-04-07 15:50:00,
2013-04-07 08:55:00,41.2,40.7,29.67,SSW,196,1.0,1.0,98,0.00,,,0.64,Wunderground v.1.15,2013-04-07 15:55:00,
2013-04-07 09:00:00,41.2,40.7,29.67,South,184,1.0,1.0,98,0.00,,,0.64,Wunderground v.1.15,2013-04-07 16:00:00,
2013-04-07 09:10:00,41.5,41.0,29.68,South,185,0.0,0.0,98,0.00,,,0.65,Wunderground v.1.15,2013-04-07 16:10:00,
2013-04-07 09:20:00,41.9,41.4,29.69,SSW,198,1.0,1.0,98,0.00,,,0.65,Wunderground v.1.15,2013-04-07 16:20:00,
2013-04-07 09:30:00,42.1,41.3,29.69,SE,144,2.0,2.0,97,0.00,,,0.65,Wunderground v.1.15,2013-04-07 16:30:00,
2013-04-07 09:40:00,42.1,41.3,29.70,SE,127,1.0,1.0,97,0.00,,,0.66,Wunderground v.1.15,2013-04-07 16:40:00,
2013-04-07 09:45:00,42.2,41.4,29.70,SSW,198,2.0,6.0,97,0.00,,,0.66,Wunderground v.1.15,2013-04-07 16:45:00,
2013-04-07 09:50:00,42.1,41.3,29.71,SSE,164,2.0,2.0,97,0.00,,,0.66,Wunderground v.1.15,2013-04-07 16:50:00,
2013-04-07 09:55:00,42.1,41.3,29.71,SE,130,2.0,2.0,97,0.00,,,0.67,Wunderground v.1.15,2013-04-07 16:55:00,
2013-04-07 10:01:00,42.3,41.5,29.71,SE,130,1.0,1.0,97,0.00,,,0.67,Wunderground v.1.15,2013-04-07 17:01:00,
2013-04-07 10:10:00,42.3,41.5,29.72,SE,131,0.0,0.0,97,0.04,,,0.68,Wunderground v.1.15,2013-04-07 17:10:00,
2013-04-07 10:16:00,42.5,41.7,29.72,SE,131,1.0,1.0,97,0.04,,,0.68,Wunderground v.1.15,2013-04-07 17:16:00,
2013-04-07 10:25:00,42.8,42.0,29.73,SE,127,0.0,1.0,97,0.04,,,0.68,Wunderground v.1.15,2013-04-07 17:25:00,
2013-04-07 10:30:00,42.8,42.0,29.73,SSE,148,0.0,0.0,97,0.00,,,0.68,Wunderground v.1.15,2013-04-07 17:30:00,
2013-04-07 10:36:00,42.9,42.1,29.74,SSE,148,0.0,0.0,97,0.00,,,0.68,Wunderground v.1.15,2013-04-07 17:36:00,
2013-04-07 10:45:00,43.2,42.4,29.74,SSE,147,0.0,0.0,97,0.00,,,0.68,Wunderground v.1.15,2013-04-07 17:45:00,
2013-04-07 10:51:00,43.5,42.7,29.74,SSE,147,0.0,0.0,97,0.00,,,0.68,Wunderground v.1.15,2013-04-07 17:51:00,
2013-04-07 11:01:00,43.8,43.0,29.74,SSE,147,0.0,0.0,97,0.00,,,0.69,Wunderground v.1.15,2013-04-07 18:01:00,
2013-04-07 11:10:00,43.6,42.5,29.75,SE,145,0.0,0.0,96,0.05,,,0.70,Wunderground v.1.15,2013-04-07 18:10:00,
2013-04-07 11:20:00,43.6,42.5,29.76,South,186,1.0,1.0,96,0.11,,,0.71,Wunderground v.1.15,2013-04-07 18:20:00,
2013-04-07 11:26:00,43.3,42.2,29.76,SSW,202,1.0,1.0,96,0.11,,,0.72,Wunderground v.1.15,2013-04-07 18:26:00,
2013-04-07 11:35:00,43.2,41.9,29.77,North,0,0.0,2.0,95,0.07,,,0.73,Wunderground v.1.15,2013-04-07 18:35:00,
2013-04-07 11:46:00,43.1,41.8,29.77,NW,304,1.0,2.0,95,0.00,,,0.73,Wunderground v.1.15,2013-04-07 18:46:00,
2013-04-07 11:55:00,42.5,40.9,29.78,ESE,114,2.0,4.0,94,0.00,,,0.74,Wunderground v.1.15,2013-04-07 18:55:00,
2013-04-07 12:10:00,42.6,41.3,29.78,SE,124,1.0,2.0,95,0.00,,,0.74,Wunderground v.1.15,2013-04-07 19:10:00,
2013-04-07 12:15:00,42.6,41.3,29.78,East,92,1.0,2.0,95,0.00,,,0.74,Wunderground v.1.15,2013-04-07 19:15:00,
2013-04-07 12:25:00,42.5,40.9,29.79,ESE,119,1.0,1.0,94,0.00,,,0.75,Wunderground v.1.15,2013-04-07 19:25:00,
2013-04-07 12:30:00,42.6,41.0,29.79,ESE,113,0.0,0.0,94,0.00,,,0.75,Wunderground v.1.15,2013-04-07 19:30:00,
2013-04-07 12:35:00,42.8,41.5,29.79,ESE,106,0.0,1.0,95,0.00,,,0.75,Wunderground v.1.15,2013-04-07 19:35:00,
2013-04-07 12:45:00,42.9,41.6,29.79,ESE,103,0.0,0.0,95,0.00,,,0.76,Wunderground v.1.15,2013-04-07 19:45:00,
2013-04-07 12:55:00,43.2,41.9,29.80,SW,216,0.0,0.0,95,0.00,,,0.76,Wunderground v.1.15,2013-04-07 19:55:00,
2013-04-07 13:01:00,43.2,41.9,29.80,SW,217,0.0,0.0,95,0.00,,,0.76,Wunderground v.1.15,2013-04-07 20:01:00,
2013-04-07 13:06:00,43.2,41.9,29.80,SSW,213,0.0,0.0,95,0.00,,,0.76,Wunderground v.1.15,2013-04-07 20:06:00,
2013-04-07 13:15:00,43.3,42.0,29.80,SW,219,0.0,1.0,95,0.00,,,0.76,Wunderground v.1.15,2013-04-07 20:15:00,
2013-04-07 13:21:00,43.2,41.6,29.81,SSW,208,0.0,0.0,94,0.00,,,0.76,Wunderground v.1.15,2013-04-07 20:21:00,
2013-04-07 13:30:00,43.3,41.7,29.81,SSW,208,0.0,0.0,94,0.00,,,0.77,Wunderground v.1.15,2013-04-07 20:30:00,
2013-04-07 13:35:00,43.5,42.2,29.81,SSW,208,0.0,0.0,95,0.00,,,0.77,Wunderground v.1.15,2013-04-07 20:35:00,
2013-04-07 13:45:00,43.9,42.6,29.81,SSW,208,0.0,1.0,95,0.00,,,0.77,Wunderground v.1.15,2013-04-07 20:45:00,
2013-04-07 13:51:00,44.2,42.9,29.81,SW,222,0.0,0.0,95,0.00,,,0.77,Wunderground v.1.15,2013-04-07 20:51:00,
2013-04-07 13:56:00,44.5,43.2,29.81,SSW,210,0.0,0.0,95,0.00,,,0.77,Wunderground v.1.15,2013-04-07 20:56:00,
2013-04-07 14:06:00,44.8,43.2,29.81,South,186,0.0,0.0,94,0.00,,,0.77,Wunderground v.1.15,2013-04-07 21:06:00,
2013-04-07 14:15:00,44.8,42.9,29.81,SSE,168,0.0,0.0,93,0.00,,,0.78,Wunderground v.1.15,2013-04-07 21:15:00,
2013-04-07 14:25:00,45.1,43.5,29.82,SSE,168,0.0,0.0,94,0.00,,,0.78,Wunderground v.1.15,2013-04-07 21:25:00,
2013-04-07 14:30:00,45.1,43.2,29.82,SSE,168,0.0,0.0,93,0.00,,,0.78,Wunderground v.1.15,2013-04-07 21:30:00,
2013-04-07 14:40:00,45.2,43.6,29.82,SSE,168,0.0,0.0,94,0.00,,,0.78,Wunderground v.1.15,2013-04-07 21:40:00,
2013-04-07 14:45:00,45.4,43.8,29.82,SSE,168,0.0,0.0,94,0.00,,,0.78,Wunderground v.1.15,2013-04-07 21:45:00,
2013-04-07 14:50:00,45.4,43.8,29.82,SSE,168,0.0,0.0,94,0.00,,,0.78,Wunderground v.1.15,2013-04-07 21:50:00,
2013-04-07 14:55:00,45.2,43.6,29.82,South,169,0.0,0.0,94,0.00,,,0.78,Wunderground v.1.15,2013-04-07 21:55:00,
2013-04-07 15:10:00,45.5,44.2,29.82,SSE,168,0.0,0.0,95,0.00,,,0.79,Wunderground v.1.15,2013-04-07 22:10:00,
2013-04-07 15:21:00,45.4,43.8,29.82,WSW,254,0.0,0.0,94,0.00,,,0.79,Wunderground v.1.15,2013-04-07 22:21:00,
2013-04-07 15:26:00,45.4,44.1,29.82,WSW,254,0.0,0.0,95,0.00,,,0.79,Wunderground v.1.15,2013-04-07 22:26:00,
2013-04-07 15:35:00,45.8,44.4,29.83,WSW,257,0.0,0.0,95,0.00,,,0.79,Wunderground v.1.15,2013-04-07 22:35:00,
2013-04-07 15:40:00,45.7,44.1,29.83,West,260,0.0,1.0,94,0.00,,,0.79,Wunderground v.1.15,2013-04-07 22:40:00,
2013-04-07 15:50:00,45.8,44.2,29.83,West,263,0.0,0.0,94,0.00,,,0.79,Wunderground v.1.15,2013-04-07 22:50:00,
2013-04-07 15:55:00,46.0,44.4,29.83,West,263,0.0,0.0,94,0.00,,,0.79,Wunderground v.1.15,2013-04-07 22:55:00,
2013-04-07 16:00:00,46.0,44.4,29.83,West,263,0.0,0.0,94,0.00,,,0.79,Wunderground v.1.15,2013-04-07 23:00:00,
2013-04-07 16:10:00,46.1,44.5,29.84,West,263,0.0,0.0,94,0.00,,,0.79,Wunderground v.1.15,2013-04-07 23:10:00,
2013-04-07 16:15:00,46.2,44.6,29.84,West,263,0.0,0.0,94,0.00,,,0.79,Wunderground v.1.15,2013-04-07 23:15:00,
2013-04-07 16:20:00,46.2,44.8,29.84,West,263,0.0,0.0,95,0.00,,,0.79,Wunderground v.1.15,2013-04-07 23:20:00,
2013-04-07 16:25:00,46.2,44.6,29.84,West,263,0.0,0.0,94,0.00,,,0.79,Wunderground v.1.15,2013-04-07 23:25:00,
2013-04-07 16:30:00,46.0,44.1,29.84,West,263,0.0,0.0,93,0.00,,,0.79,Wunderground v.1.15,2013-04-07 23:30:00,
2013-04-07 16:35:00,46.0,44.1,29.84,West,263,0.0,0.0,93,0.00,,,0.79,Wunderground v.1.15,2013-04-07 23:35:00,
2013-04-07 16:40:00,46.0,44.4,29.84,West,263,0.0,0.0,94,0.00,,,0.79,Wunderground v.1.15,2013-04-07 23:40:00,
2013-04-07 16:45:00,46.0,44.6,29.84,West,263,0.0,0.0,95,0.00,,,0.80,Wunderground v.1.15,2013-04-07 23:45:00,
2013-04-07 16:50:00,46.0,44.6,29.84,West,263,0.0,1.0,95,0.00,,,0.80,Wunderground v.1.15,2013-04-07 23:50:00,
2013-04-07 17:00:00,45.8,44.2,29.84,West,261,0.0,0.0,94,0.00,,,0.80,Wunderground v.1.15,2013-04-08 00:00:00,
2013-04-07 17:10:00,45.8,44.4,29.84,West,263,0.0,0.0,95,0.00,,,0.80,Wunderground v.1.15,2013-04-08 00:10:00,
2013-04-07 17:15:00,45.7,44.4,29.84,WSW,241,0.0,0.0,95,0.00,,,0.80,Wunderground v.1.15,2013-04-08 00:15:00,
2013-04-07 17:20:00,45.7,44.1,29.84,SW,236,0.0,0.0,94,0.00,,,0.80,Wunderground v.1.15,2013-04-08 00:20:00,
2013-04-07 17:25:00,45.5,43.9,29.84,SW,236,0.0,0.0,94,0.00,,,0.80,Wunderground v.1.15,2013-04-08 00:25:00,
2013-04-07 17:30:00,45.7,44.4,29.84,SW,236,0.0,0.0,95,0.00,,,0.80,Wunderground v.1.15,2013-04-08 00:30:00,
2013-04-07 17:40:00,46.0,44.6,29.84,SSE,151,0.0,2.0,95,0.00,,,0.80,Wunderground v.1.15,2013-04-08 00:40:00,
2013-04-07 17:45:00,46.0,44.6,29.84,SSE,151,0.0,2.0,95,0.00,,,0.80,Wunderground v.1.15,2013-04-08 00:45:00,
2013-04-07 17:55:00,46.1,44.7,29.85,SE,144,0.0,1.0,95,0.00,,,0.80,Wunderground v.1.15,2013-04-08 00:55:00,
2013-04-07 18:00:00,46.2,44.8,29.85,SE,144,0.0,1.0,95,0.00,,,0.80,Wunderground v.1.15,2013-04-08 01:00:00,
2013-04-07 18:10:00,46.5,45.1,29.85,SSE,150,0.0,0.0,95,0.00,,,0.80,Wunderground v.1.15,2013-04-08 01:10:00,
2013-04-07 18:20:00,46.2,44.3,29.85,SSE,150,0.0,0.0,93,0.00,,,0.80,Wunderground v.1.15,2013-04-08 01:20:00,
2013-04-07 18:30:00,46.1,43.9,29.85,SSE,148,0.0,0.0,92,0.00,,,0.80,Wunderground v.1.15,2013-04-08 01:30:00,
2013-04-07 18:35:00,46.0,43.8,29.85,SSE,148,0.0,0.0,92,0.00,,,0.80,Wunderground v.1.15,2013-04-08 01:35:00,
2013-04-07 18:40:00,46.0,43.8,29.85,SSE,148,0.0,0.0,92,0.00,,,0.80,Wunderground v.1.15,2013-04-08 01:40:00,
2013-04-07 18:45:00,45.8,43.9,29.85,SSE,148,0.0,0.0,93,0.00,,,0.80,Wunderground v.1.15,2013-04-08 01:45:00,
2013-04-07 18:55:00,45.8,44.2,29.85,SSE,148,0.0,0.0,94,0.00,,,0.80,Wunderground v.1.15,2013-04-08 01:55:00,
2013-04-07 19:00:00,45.8,44.2,29.85,SSE,148,0.0,0.0,94,0.00,,,0.80,Wunderground v.1.15,2013-04-08 02:00:00,
2013-04-07 19:10:00,45.5,43.6,29.86,SSE,148,0.0,0.0,93,0.00,,,0.80,Wunderground v.1.15,2013-04-08 02:10:00,
2013-04-07 19:15:00,45.4,43.5,29.86,SSE,148,0.0,0.0,93,0.00,,,0.80,Wunderground v.1.15,2013-04-08 02:15:00,
2013-04-07 19:25:00,45.1,43.5,29.86,SSE,148,0.0,0.0,94,0.00,,,0.80,Wunderground v.1.15,2013-04-08 02:25:00,
2013-04-07 19:35:00,44.5,42.9,29.87,SSE,148,0.0,0.0,94,0.00,,,0.80,Wunderground v.1.15,2013-04-08 02:35:00,
2013-04-07 19:40:00,44.2,42.6,29.87,SSE,148,0.0,0.0,94,0.00,,,0.80,Wunderground v.1.15,2013-04-08 02:40:00,
2013-04-07 19:45:00,44.2,42.9,29.87,SSE,148,0.0,0.0,95,0.00,,,0.80,Wunderground v.1.15,2013-04-08 02:45:00,
2013-04-07 19:50:00,44.1,42.8,29.87,SSE,148,0.0,0.0,95,0.00,,,0.80,Wunderground v.1.15,2013-04-08 02:50:00,
2013-04-07 19:56:00,44.1,42.8,29.87,SSE,148,0.0,0.0,95,0.00,,,0.80,Wunderground v.1.15,2013-04-08 02:56:00,
2013-04-07 20:11:00,43.8,42.5,29.88,SSE,148,0.0,0.0,95,0.00,,,0.80,Wunderground v.1.15,2013-04-08 03:11:00,
2013-04-07 20:20:00,43.8,42.5,29.89,SSE,148,0.0,0.0,95,0.00,,,0.80,Wunderground v.1.15,2013-04-08 03:20:00,
2013-04-07 20:26:00,43.6,42.5,29.89,SSE,148,0.0,0.0,96,0.00,,,0.80,Wunderground v.1.15,2013-04-08 03:26:00,
2013-04-07 20:35:00,43.6,42.5,29.89,SSE,148,0.0,0.0,96,0.00,,,0.80,Wunderground v.1.15,2013-04-08 03:35:00,
2013-04-07 20:40:00,43.6,42.5,29.89,SSE,148,0.0,0.0,96,0.00,,,0.80,Wunderground v.1.15,2013-04-08 03:40:00,
2013-04-07 20:46:00,43.6,42.8,29.89,SSE,148,0.0,0.0,97,0.00,,,0.80,Wunderground v.1.15,2013-04-08 03:46:00,
2013-04-07 20:56:00,43.6,42.8,29.89,SSE,148,0.0,0.0,97,0.00,,,0.80,Wunderground v.1.15,2013-04-08 03:56:00,
2013-04-07 21:00:00,43.5,42.7,29.89,SSE,148,0.0,0.0,97,0.00,,,0.80,Wunderground v.1.15,2013-04-08 04:00:00,
2013-04-07 21:10:00,43.5,42.7,29.90,SSE,148,0.0,0.0,97,0.00,,,0.80,Wunderground v.1.15,2013-04-08 04:10:00,
2013-04-07 21:15:00,43.5,42.7,29.90,SSE,148,0.0,0.0,97,0.00,,,0.80,Wunderground v.1.15,2013-04-08 04:15:00,
2013-04-07 21:20:00,43.5,42.7,29.91,SSE,148,0.0,0.0,97,0.00,,,0.80,Wunderground v.1.15,2013-04-08 04:20:00,
2013-04-07 21:30:00,43.5,42.7,29.91,SSE,148,0.0,0.0,97,0.00,,,0.81,Wunderground v.1.15,2013-04-08 04:30:00,
2013-04-07 21:36:00,43.5,42.7,29.91,SSE,148,0.0,0.0,97,0.00,,,0.81,Wunderground v.1.15,2013-04-08 04:36:00,
2013-04-07 21:45:00,43.5,42.7,29.91,SSE,148,0.0,0.0,97,0.00,,,0.81,Wunderground v.1.15,2013-04-08 04:45:00,
2013-04-07 21:55:00,43.3,42.5,29.91,SSE,148,0.0,0.0,97,0.00,,,0.81,Wunderground v.1.15,2013-04-08 04:55:00,
2013-04-07 22:10:00,43.2,42.4,29.92,SSE,148,0.0,0.0,97,0.00,,,0.81,Wunderground v.1.15,2013-04-08 05:10:00,
2013-04-07 22:20:00,43.2,42.4,29.92,SSE,148,0.0,0.0,97,0.00,,,0.81,Wunderground v.1.15,2013-04-08 05:20:00,
2013-04-07 22:25:00,43.1,42.3,29.92,SSE,150,0.0,0.0,97,0.00,,,0.81,Wunderground v.1.15,2013-04-08 05:25:00,
2013-04-07 22:30:00,43.1,42.3,29.92,SSE,150,0.0,0.0,97,0.00,,,0.81,Wunderground v.1.15,2013-04-08 05:30:00,
2013-04-07 22:36:00,43.1,42.3,29.93,SSE,150,0.0,0.0,97,0.00,,,0.81,Wunderground v.1.15,2013-04-08 05:36:00,
2013-04-07 22:45:00,43.1,42.3,29.93,SSE,150,0.0,0.0,97,0.00,,,0.81,Wunderground v.1.15,2013-04-08 05:45:00,
2013-04-07 22:55:00,43.1,42.3,29.93,SSE,150,0.0,0.0,97,0.00,,,0.81,Wunderground v.1.15,2013-04-08 05:55:00,
2013-04-07 23:10:00,42.9,42.1,29.93,SSE,150,0.0,0.0,97,0.00,,,0.81,Wunderground v.1.15,2013-04-08 06:10:00,
2013-04-07 23:15:00,42.9,42.4,29.93,SE,126,0.0,0.0,98,0.00,,,0.81,Wunderground v.1.15,2013-04-08 06:15:00,
2013-04-07 23:21:00,42.9,42.4,29.94,SE,126,0.0,0.0,98,0.00,,,0.81,Wunderground v.1.15,2013-04-08 06:21:00,
2013-04-07 23:30:00,42.9,42.4,29.94,SE,126,0.0,0.0,98,0.00,,,0.81,Wunderground v.1.15,2013-04-08 06:30:00,
2013-04-07 23:35:00,42.9,42.4,29.94,SE,126,0.0,0.0,98,0.00,,,0.81,Wunderground v.1.15,2013-04-08 06:35:00,
2013-04-07 23:45:00,42.9,42.4,29.94,SE,126,0.0,0.0,98,0.00,,,0.81,Wunderground v.1.15,2013-04-08 06:45:00,
2013-04-07 23:50:00,42.8,42.3,29.95,SE,126,0.0,0.0,98,0.00,,,0.82,Wunderground v.1.15,2013-04-08 06:50:00,